Location: Newark
(58.9986°N, 38.5006°E)
Time: 17:39:24
(UTC+00:00)

ISS - Pass Details

Date: 06 March 2021
Orbit: 418 x 422 km, 51.6° (Epoch: 17 April)

Event Time Altitude Azimuth Distance (km) Brightness Sun altitude
Exits shadow 01:34:37 20° 156° (SSE) 1,024 -1.8 -20.2°
Drops below altitude 10° 01:36:23 10° 128° (SE) 1,500 -0.6 -20.0°
Sets 01:38:43 0° 114° (ESE) 2,364 0.7 -19.7°
